Location: Unspecified
(42.3650°N, 71.1030°W)
Time: 15:32:56
(UTC+00:00)

Explorer 11/Cluster Stage 4 - Pass Details

Date: 25 June 2024
Orbit: 465 x 1214 km, 28.8° (Epoch: 22 July)

Event Time Altitude Azimuth Distance (km) Brightness Sun altitude
Rises 00:43:07 0° 236° (WSW) 4,041 10.5 -3.5°
Reaches altitude 10° 00:46:22 10° 226° (SW) 3,128 9.8 -4.0°
Maximum altitude 00:52:49 28° 172° (S) 2,116 8.4 -4.9°
Drops below altitude 10° 00:59:11 10° 118° (ESE) 3,089 9.0 -5.9°
Enters shadow 01:00:41 - 112° (ESE) 3,494 9.3 -6.1°
Sets 01:02:22 0° 107° (ESE) 3,982 - -6.3°
